Weather History for Stevens Point, WI

Change the Weather History Date:

Sunday, January 29, 2012

  Actual Average Record
Temperature  
Mean Temperature 12 °F -  
Max Temperature 19 °F 22 °F 41 °F (1989)
Min Temperature 3 °F 5 °F -28 °F (1952)
Degree Days  
Heating Degree Days 52    
Moisture  
Dew Point 7 °F    
Average Humidity 70    
Maximum Humidity 92    
Minimum Humidity 53    
Precipitation  
Precipitation 0.00 in - - ()
Sea Level Pressure  
Sea Level Pressure 30.01 in    
Wind  
Wind Speed 4 mph (West)    
Max Wind Speed 15 mph    
Max Gust Speed 21 mph    
Visibility 10 miles    
Events      
Averages and records for this station are not official NWS values.
T = Trace of Precipitation, MM = Missing Value Source: NWS Daily Summary

Daily Weather History Graph

Daily Weather History Graph

Search for Another Location

Airport:

Trip Planner

Search our weather history database for the weather conditions in past years. The results will help you decide how hot, cold, wet, or windy it might be!

Date:

Astronomy

Jan. 29, 2012 Rise Set
Actual Time 7:20 AM CST 5:02 PM CST
Civil Twilight 6:49 AM CST 5:33 PM CST
Nautical Twilight 6:14 AM CST 6:08 PM CST
Astronomical Twilight 5:39 AM CST 6:43 PM CST
Moon 9:53 AM CST (1/29) No Moon Set
Length of Visible Light 10h 44m
Length of Day
9h 41m
Waxing Crescent, 37% of the Moon is Illuminated
Jan 29
Waxing Crescent
Jan 30
First Quarter
Feb 7
Full
Feb 14
Last Quarter
Feb 21
New

Hourly Weather History & Observations

Time (CST) Temp. Windchill Dew Point Humidity Pressure Visibility Wind Dir Wind Speed Gust Speed Precip Events Conditions
12:15 AM 17.6 °F - 12.2 °F 79% 29.91 in 10.0 mi Calm Calm - N/A   Clear
12:35 AM 17.6 °F - 10.4 °F 73% 29.91 in 10.0 mi Calm Calm - N/A   Clear
12:55 AM 15.8 °F 10.2 °F 10.4 °F 79% 29.91 in 10.0 mi WSW 3.5 mph - N/A   Clear
1:15 AM 15.8 °F - 10.4 °F 79% 29.90 in 10.0 mi Calm Calm - N/A   Clear
1:35 AM 15.8 °F - 10.4 °F 79% 29.91 in 10.0 mi Calm Calm - N/A   Mostly Cloudy
1:55 AM 14.0 °F - 10.4 °F 86% 29.90 in 10.0 mi Calm Calm - N/A   Mostly Cloudy
2:15 AM 12.2 °F - 8.6 °F 85% 29.91 in 10.0 mi Calm Calm - N/A   Mostly Cloudy
2:35 AM 10.4 °F - 8.6 °F 92% 29.91 in 10.0 mi Calm Calm - N/A   Overcast
2:55 AM 12.2 °F - 10.4 °F 92% 29.90 in 10.0 mi Calm Calm - N/A   Overcast
3:15 AM 14.0 °F - 10.4 °F 86% 29.90 in 10.0 mi Calm Calm - N/A   Mostly Cloudy
3:35 AM 15.8 °F - 10.4 °F 79% 29.90 in 10.0 mi Calm Calm - N/A   Scattered Clouds
3:55 AM 17.6 °F - 10.4 °F 73% 29.90 in 10.0 mi Calm Calm - N/A   Mostly Cloudy
4:35 AM 17.6 °F 12.3 °F 10.4 °F 73% 29.91 in 10.0 mi West 3.5 mph - N/A   Clear
4:55 AM 15.8 °F 10.2 °F 10.4 °F 79% 29.91 in 10.0 mi WNW 3.5 mph - N/A   Clear
5:15 AM 15.8 °F 10.2 °F 10.4 °F 79% 29.92 in 10.0 mi West 3.5 mph - N/A   Clear
5:55 AM 14.0 °F 6.5 °F 10.4 °F 86% 29.93 in 10.0 mi West 4.6 mph - N/A   Scattered Clouds
6:15 AM 12.2 °F 2.9 °F 10.4 °F 92% 29.94 in 10.0 mi West 5.8 mph - N/A   Clear
6:35 AM 12.2 °F 4.3 °F 8.6 °F 85% 29.95 in 10.0 mi West 4.6 mph - N/A   Clear
6:55 AM 12.2 °F 4.3 °F 8.6 °F 85% 29.95 in 10.0 mi West 4.6 mph - N/A   Clear
7:15 AM 12.2 °F 4.3 °F 8.6 °F 85% 29.96 in 10.0 mi West 4.6 mph - N/A   Clear
7:35 AM 12.2 °F 6.1 °F 8.6 °F 85% 29.97 in 10.0 mi West 3.5 mph - N/A   Clear
7:55 AM 12.2 °F 2.9 °F 8.6 °F 85% 29.98 in 10.0 mi West 5.8 mph - N/A   Clear
8:15 AM 12.2 °F 4.3 °F 8.6 °F 85% 29.99 in 10.0 mi West 4.6 mph - N/A   Scattered Clouds
8:35 AM 14.0 °F 5.1 °F 8.6 °F 79% 29.99 in 10.0 mi West 5.8 mph - N/A   Scattered Clouds
8:55 AM 15.8 °F 6.1 °F 8.6 °F 73% 29.99 in 10.0 mi WNW 6.9 mph - N/A   Clear
9:15 AM 15.8 °F 5.1 °F 8.6 °F 73% 29.99 in 10.0 mi WNW 8.1 mph - N/A   Clear
9:35 AM 17.6 °F 8.2 °F 8.6 °F 68% 30.00 in 10.0 mi WNW 6.9 mph 16.1 mph N/A   Clear
9:55 AM 17.6 °F 5.0 °F 8.6 °F 68% 30.01 in 10.0 mi WNW 11.5 mph 17.3 mph N/A   Clear
10:15 AM 17.6 °F 5.7 °F 6.8 °F 63% 30.02 in 10.0 mi West 10.4 mph 17.3 mph N/A   Clear
10:35 AM 19.4 °F 8.6 °F 6.8 °F 58% 30.03 in 10.0 mi WNW 9.2 mph 17.3 mph N/A   Clear
10:55 AM 19.4 °F 7.2 °F 6.8 °F 58% 30.03 in 10.0 mi WNW 11.5 mph - N/A   Clear
11:15 AM 19.4 °F 8.6 °F 6.8 °F 58% 30.04 in 10.0 mi West 9.2 mph - N/A   Clear
11:35 AM 19.4 °F 6.6 °F 6.8 °F 58% 30.04 in 10.0 mi West 12.7 mph 18.4 mph N/A   Clear
11:55 AM 19.4 °F 6.6 °F 6.8 °F 58% 30.04 in 10.0 mi West 12.7 mph 18.4 mph N/A   Clear
12:15 PM 19.4 °F 6.6 °F 6.8 °F 58% 30.04 in 10.0 mi West 12.7 mph 20.7 mph N/A   Clear
12:35 PM 19.4 °F 6.0 °F 6.8 °F 58% 30.05 in 10.0 mi West 13.8 mph 20.7 mph N/A   Clear
12:55 PM 19.4 °F 7.2 °F 6.8 °F 58% 30.05 in 10.0 mi West 11.5 mph 18.4 mph N/A   Clear
1:15 PM 19.4 °F 7.2 °F 6.8 °F 58% 30.05 in 10.0 mi West 11.5 mph 20.7 mph N/A   Clear
1:35 PM 19.4 °F 5.5 °F 6.8 °F 58% 30.05 in 10.0 mi WSW 15.0 mph - N/A   Clear
1:55 PM 19.4 °F 6.0 °F 6.8 °F 58% 30.05 in 10.0 mi West 13.8 mph 19.6 mph N/A   Clear
2:15 PM 19.4 °F 6.6 °F 6.8 °F 58% 30.05 in 10.0 mi West 12.7 mph 20.7 mph N/A   Clear
2:35 PM 19.4 °F 6.0 °F 6.8 °F 58% 30.06 in 10.0 mi West 13.8 mph 19.6 mph N/A   Clear
2:55 PM 19.4 °F 6.6 °F 5.0 °F 54% 30.06 in 10.0 mi West 12.7 mph 20.7 mph N/A   Clear
3:15 PM 19.4 °F 7.9 °F 5.0 °F 54% 30.06 in 10.0 mi West 10.4 mph 17.3 mph N/A   Clear
3:35 PM 19.4 °F 8.6 °F 5.0 °F 54% 30.07 in 10.0 mi West 9.2 mph 17.3 mph N/A   Clear
3:55 PM 19.4 °F 9.5 °F 5.0 °F 54% 30.08 in 10.0 mi West 8.1 mph 18.4 mph N/A   Clear
4:15 PM 19.4 °F 7.2 °F 5.0 °F 54% 30.10 in 10.0 mi WSW 11.5 mph 19.6 mph N/A   Clear
4:35 PM 19.4 °F 10.4 °F 5.0 °F 54% 30.10 in 10.0 mi West 6.9 mph - N/A   Clear
4:55 PM 17.6 °F 10.7 °F 3.2 °F 53% 30.10 in 10.0 mi WNW 4.6 mph - N/A   Clear
5:15 PM 17.6 °F 12.3 °F 3.2 °F 53% 30.10 in 10.0 mi West 3.5 mph - N/A   Clear
5:35 PM 15.8 °F - 3.2 °F 58% 30.11 in 10.0 mi Calm Calm - N/A   Clear
5:55 PM 15.8 °F - 3.2 °F 58% 30.11 in 10.0 mi Calm Calm - N/A   Clear
6:15 PM 12.2 °F - 3.2 °F 67% 30.12 in 10.0 mi Calm Calm - N/A   Clear
6:35 PM 12.2 °F - 3.2 °F 67% 30.12 in 10.0 mi Calm Calm - N/A   Clear
6:55 PM 10.4 °F - 3.2 °F 73% 30.12 in 10.0 mi Calm Calm - N/A   Clear
7:15 PM 8.6 °F - 1.4 °F 73% 30.12 in 10.0 mi Calm Calm - N/A   Clear
7:35 PM 6.8 °F - -0.4 °F 72% 30.12 in 10.0 mi Calm Calm - N/A   Clear
7:55 PM 6.8 °F - 1.4 °F 79% 30.13 in 10.0 mi Calm Calm - N/A   Clear
8:15 PM 6.8 °F - 1.4 °F 79% 30.12 in 10.0 mi Calm Calm - N/A   Clear
8:35 PM 6.8 °F - 1.4 °F 79% 30.12 in 10.0 mi Calm Calm - N/A   Clear
8:55 PM 3.2 °F - -0.4 °F 85% 30.12 in 10.0 mi Calm Calm - N/A   Clear
9:15 PM 3.2 °F - -0.4 °F 85% 30.12 in 10.0 mi Calm Calm - N/A   Clear
9:35 PM 3.2 °F - -0.4 °F 85% 30.13 in 10.0 mi Calm Calm - N/A   Clear
10:15 PM 1.4 °F - -2.2 °F 85% 30.12 in 10.0 mi Calm Calm - N/A   Clear
10:35 PM 1.4 °F - -2.2 °F 85% 30.11 in 10.0 mi Calm Calm - N/A   Clear
10:55 PM 3.2 °F - -0.4 °F 85% 30.12 in 10.0 mi Calm Calm - N/A   Scattered Clouds
11:15 PM 1.4 °F - -2.2 °F 85% 30.11 in 10.0 mi Calm Calm - N/A   Mostly Cloudy
11:35 PM 3.2 °F - -0.4 °F 85% 30.11 in 10.0 mi Calm Calm - N/A   Overcast
11:55 PM 3.2 °F - -0.4 °F 85% 30.11 in 10.0 mi Calm Calm - N/A   Overcast